Вернуться в каталог

STARLINK-30874

АктивенСвязьVLEO
NORAD 58227·PAYLOAD·🇺🇸 United States

Запущен Nov 3, 2023 с Cape Canaveral Space Force Station

Loading…

Ближайшие Пролёты (ближайшие 24 часа)

TLE

СвежийSource: CelesTrak SupGP

Эпоха: Sep 15, 2026, 02:45 UTC

1 58227C 23170X   26258.11506944  .00005382  00000+0  19497-3 0  2588
2 58227  42.9996 204.5810 0001296 263.9639 251.6726 15.27571972    17

Отслеживайте STARLINK-30874 в реальном времени с AllMySat

Download on the App Store